Hourly Weather Rudakov

Today, 22 April, Thursday

Time Temperature Precipitation Wind Pressure Humidity
00:00 +8°C° 0 mm 3 mps 754 mmHg 81%
01:00 +8°C° 0 mm 3 mps 755 mmHg 82%
02:00 +7°C° 0 mm 3 mps 755 mmHg 83%
03:00 +7°C° 0 mm 2 mps 755 mmHg 84%
04:00 +7°C° 0 mm 2 mps 755 mmHg 84%
05:00 +7°C° 0 mm 2 mps 755 mmHg 84%
06:00 +7°C° 0 mm 2 mps 756 mmHg 84%
07:00 +9°C° 0 mm 2 mps 756 mmHg 77%
08:00 +12°C° 0 mm 2 mps 756 mmHg 69%
09:00 +13°C° 0 mm 3 mps 756 mmHg 62%
10:00 +14°C° 0 mm 3 mps 756 mmHg 58%
11:00 +16°C° 0 mm 3 mps 756 mmHg 53%
12:00 +17°C° 0 mm 3 mps 756 mmHg 49%
13:00 +17°C° 0.1 mm 3 mps 756 mmHg 49%
14:00 +17°C° 0.1 mm 3 mps 756 mmHg 49%
15:00 +17°C° 0.1 mm 3 mps 755 mmHg 50%
16:00 +17°C° 0.1 mm 2 mps 755 mmHg 53%
17:00 +16°C° 0.1 mm 2 mps 755 mmHg 56%
18:00 +16°C° 0.1 mm 2 mps 755 mmHg 60%
19:00 +15°C° 0.2 mm 2 mps 756 mmHg 64%
20:00 +14°C° 0.2 mm 2 mps 756 mmHg 68%
21:00 +13°C° 0.2 mm 2 mps 756 mmHg 72%
22:00 +11°C° 0.3 mm 3 mps 756 mmHg 77%
23:00 +11°C° 0.3 mm 4 mps 756 mmHg 82%

Tomorrow, 23 April, Friday

Time Temperature Precipitation Wind Pressure Humidity
00:00 +9°C° 0.3 mm 5 mps 756 mmHg 86%
01:00 +10°C° 0.8 mm 4 mps 756 mmHg 88%
02:00 +10°C° 0.8 mm 3 mps 756 mmHg 90%
03:00 +9°C° 0.8 mm 2 mps 756 mmHg 92%
04:00 +9°C° 0.4 mm 2 mps 756 mmHg 91%
05:00 +10°C° 0.4 mm 2 mps 756 mmHg 90%
06:00 +10°C° 0.4 mm 2 mps 756 mmHg 89%
07:00 +10°C° 0.3 mm 2 mps 756 mmHg 85%
08:00 +12°C° 0.3 mm 2 mps 756 mmHg 80%
09:00 +13°C° 0.3 mm 2 mps 756 mmHg 76%
10:00 +14°C° 0.1 mm 2 mps 756 mmHg 69%
11:00 +14°C° 0.1 mm 3 mps 755 mmHg 62%
12:00 +17°C° 0.1 mm 3 mps 755 mmHg 54%
13:00 +17°C° 0.1 mm 3 mps 755 mmHg 51%
14:00 +18°C° 0.1 mm 4 mps 754 mmHg 47%
15:00 +18°C° 0.1 mm 4 mps 754 mmHg 44%
16:00 +17°C° 0 mm 4 mps 754 mmHg 49%
17:00 +16°C° 0 mm 3 mps 754 mmHg 55%
18:00 +16°C° 0 mm 3 mps 753 mmHg 61%
19:00 +13°C° 0 mm 3 mps 753 mmHg 65%
20:00 +12°C° 0 mm 3 mps 753 mmHg 69%
21:00 +11°C° 0 mm 4 mps 753 mmHg 73%
22:00 +10°C° 0 mm 3 mps 753 mmHg 74%
23:00 +10°C° 0 mm 3 mps 753 mmHg 75%

Day after tomorrow, 24 April, Saturday

Time Temperature Precipitation Wind Pressure Humidity
00:00 +9°C° 0 mm 3 mps 752 mmHg 76%
01:00 +9°C° 0 mm 3 mps 752 mmHg 76%
02:00 +9°C° 0 mm 3 mps 752 mmHg 76%
03:00 +9°C° 0 mm 3 mps 752 mmHg 77%
04:00 +8°C° 0 mm 4 mps 751 mmHg 78%
05:00 +8°C° 0 mm 4 mps 751 mmHg 80%
06:00 +8°C° 0 mm 4 mps 751 mmHg 82%
07:00 +9°C° 0 mm 5 mps 751 mmHg 76%
08:00 +11°C° 0 mm 6 mps 751 mmHg 70%
09:00 +13°C° 0 mm 6 mps 751 mmHg 64%
10:00 +12°C° 0.3 mm 7 mps 751 mmHg 66%
11:00 +12°C° 0.3 mm 7 mps 751 mmHg 67%
12:00 +11°C° 0.3 mm 7 mps 751 mmHg 69%
13:00 +11°C° 0.1 mm 6 mps 751 mmHg 66%
14:00 +11°C° 0.1 mm 6 mps 751 mmHg 63%
15:00 +10°C° 0.1 mm 5 mps 752 mmHg 61%
16:00 +12°C° 0 mm 5 mps 751 mmHg 57%
17:00 +12°C° 0 mm 4 mps 751 mmHg 53%
18:00 +13°C° 0 mm 4 mps 751 mmHg 50%
19:00 +12°C° 0 mm 4 mps 752 mmHg 52%
20:00 +11°C° 0 mm 4 mps 752 mmHg 55%
21:00 +9°C° 0 mm 3 mps 752 mmHg 58%
22:00 +9°C° 0 mm 3 mps 752 mmHg 61%
23:00 +8°C° 0 mm 3 mps 753 mmHg 65%

25 April, Sunday

Time Temperature Precipitation Wind Pressure Humidity
00:00 +7°C° 0 mm 3 mps 753 mmHg 69%
01:00 +5°C° 0 mm 4 mps 753 mmHg 68%
02:00 +5°C° 0 mm 4 mps 753 mmHg 67%
03:00 +3°C° 0 mm 5 mps 753 mmHg 67%
04:00 +3°C° 0 mm 5 mps 754 mmHg 69%
05:00 +3°C° 0 mm 4 mps 754 mmHg 71%
06:00 +1°C° 0 mm 4 mps 755 mmHg 74%
07:00 +4°C° 0 mm 4 mps 755 mmHg 68%
08:00 +5°C° 0 mm 4 mps 755 mmHg 62%
09:00 +6°C° 0 mm 5 mps 755 mmHg 57%
10:00 +7°C° 0 mm 4 mps 755 mmHg 52%
11:00 +8°C° 0 mm 4 mps 755 mmHg 47%
12:00 +10°C° 0 mm 4 mps 755 mmHg 42%
13:00 +11°C° 0 mm 3 mps 755 mmHg 40%
14:00 +11°C° 0 mm 3 mps 755 mmHg 39%
15:00 +11°C° 0 mm 3 mps 755 mmHg 37%
16:00 +12°C° 0 mm 2 mps 755 mmHg 40%
17:00 +12°C° 0 mm 2 mps 755 mmHg 42%
18:00 +12°C° 0 mm 1 mps 755 mmHg 44%
19:00 +11°C° 0 mm 1 mps 755 mmHg 46%
20:00 +10°C° 0 mm 1 mps 755 mmHg 47%
21:00 +9°C° 0 mm 1 mps 755 mmHg 49%
22:00 +8°C° 0 mm 1 mps 755 mmHg 50%
23:00 +7°C° 0 mm 0 mps 755 mmHg 51%

26 April, Monday

Time Temperature Precipitation Wind Pressure Humidity
00:00 +7°C° 0 mm 0 mps 755 mmHg 52%
01:00 +6°C° 0 mm 0 mps 754 mmHg 53%
02:00 +6°C° 0 mm 0 mps 754 mmHg 54%
03:00 +5°C° 0 mm 0 mps 754 mmHg 55%
04:00 +6°C° 0 mm 0 mps 754 mmHg 56%
05:00 +6°C° 0 mm 0 mps 754 mmHg 58%
06:00 +7°C° 0 mm 1 mps 754 mmHg 60%
07:00 +8°C° 0 mm 1 mps 754 mmHg 56%
08:00 +9°C° 0 mm 1 mps 754 mmHg 53%
09:00 +10°C° 0 mm 2 mps 753 mmHg 49%
10:00 +10°C° 0 mm 2 mps 753 mmHg 47%
11:00 +12°C° 0 mm 2 mps 753 mmHg 45%
12:00 +13°C° 0 mm 2 mps 752 mmHg 43%
13:00 +13°C° 0 mm 2 mps 752 mmHg 43%
14:00 +13°C° 0 mm 2 mps 752 mmHg 44%
15:00 +14°C° 0 mm 2 mps 751 mmHg 44%
16:00 +12°C° 0 mm 3 mps 751 mmHg 47%
17:00 +12°C° 0 mm 3 mps 751 mmHg 51%
18:00 +12°C° 0 mm 3 mps 751 mmHg 54%
19:00 +10°C° 0 mm 3 mps 751 mmHg 63%
20:00 +8°C° 0 mm 4 mps 751 mmHg 72%
21:00 +6°C° 0 mm 4 mps 751 mmHg 81%
22:00 +6°C° 0 mm 4 mps 751 mmHg 83%
23:00 +7°C° 0 mm 3 mps 751 mmHg 85%

27 April, Tuesday

Time Temperature Precipitation Wind Pressure Humidity
00:00 +5°C° 0 mm 3 mps 751 mmHg 88%
01:00 +5°C° 0 mm 3 mps 751 mmHg 87%
02:00 +6°C° 0 mm 2 mps 751 mmHg 87%
03:00 +6°C° 0 mm 2 mps 751 mmHg 86%
04:00 +6°C° 0 mm 2 mps 751 mmHg 86%
05:00 +5°C° 0 mm 2 mps 752 mmHg 86%
06:00 +4°C° 0 mm 3 mps 752 mmHg 85%
07:00 +6°C° 0 mm 4 mps 752 mmHg 74%
08:00 +7°C° 0 mm 5 mps 752 mmHg 64%
09:00 +8°C° 0 mm 6 mps 753 mmHg 53%
10:00 +9°C° 0 mm 6 mps 753 mmHg 47%
11:00 +10°C° 0 mm 7 mps 752 mmHg 41%
12:00 +11°C° 0 mm 7 mps 752 mmHg 35%
13:00 +10°C° 0 mm 7 mps 752 mmHg 37%
14:00 +10°C° 0 mm 7 mps 752 mmHg 38%
15:00 +10°C° 0 mm 7 mps 752 mmHg 40%
16:00 +10°C° 0 mm 7 mps 753 mmHg 45%
17:00 +9°C° 0 mm 6 mps 753 mmHg 50%
18:00 +8°C° 0 mm 5 mps 753 mmHg 56%
19:00 +7°C° 0.1 mm 4 mps 753 mmHg 60%
20:00 +7°C° 0.1 mm 3 mps 754 mmHg 64%
21:00 +6°C° 0.1 mm 2 mps 754 mmHg 69%
22:00 +6°C° 0 mm 2 mps 754 mmHg 71%
23:00 +5°C° 0 mm 2 mps 754 mmHg 74%
Show more